| time (UTC) | temp C | wind direction | speed KPH | gust KPH | rain 1hr cm | rain 24hr cm | rain mn cm | humidity % | barometer mb |
| 20260507004506 | 18 | 279 | 16.1 | 30.6 | 0.00 | 0.00 | 0.00 | 70 | 1017.6 |
| 20260507004007 | 18 | 216 | 16.1 | 30.6 | 0.00 | 0.00 | 0.00 | 70 | 1017.7 |
| 20260507003006 | 18 | 242 | 12.9 | 27.4 | 0.00 | 0.00 | 0.00 | 70 | 1017.7 |
| 20260507002505 | 18 | 266 | 16.1 | 29.0 | 0.00 | 0.00 | 0.00 | 69 | 1017.7 |
| 20260507002005 | 18 | 228 | 14.5 | 32.2 | 0.00 | 0.00 | 0.00 | 69 | 1017.7 |
| 20260507001005 | 18 | 250 | 17.7 | 33.8 | 0.00 | 0.00 | 0.00 | 69 | 1017.8 |
| 20260507000505 | 18 | 239 | 17.7 | 35.4 | 0.00 | 0.00 | 0.00 | 68 | 1017.7 |
| 20260506235007 | 19 | 282 | 16.1 | 30.6 | 0.00 | 0.00 | 0.00 | 69 | 1017.9 |
| 20260506234505 | 19 | 233 | 16.1 | 30.6 | 0.00 | 0.00 | 0.00 | 69 | 1017.8 |
| 20260506234006 | 19 | 242 | 14.5 | 27.4 | 0.00 | 0.00 | 0.00 | 69 | 1017.9 |
| 20260506233505 | 19 | 290 | 12.9 | 27.4 | 0.00 | 0.00 | 0.00 | 69 | 1017.9 |
| 20260506233006 | 20 | 242 | 16.1 | 27.4 | 0.00 | 0.00 | 0.00 | 69 | 1017.9 |
| 20260506232505 | 20 | 265 | 12.9 | 24.1 | 0.00 | 0.00 | 0.00 | 68 | 1017.9 |
| 20260506232007 | 20 | 236 | 14.5 | 27.4 | 0.00 | 0.00 | 0.00 | 68 | 1018.0 |
| 20260506231505 | 20 | 248 | 12.9 | 27.4 | 0.00 | 0.00 | 0.00 | 68 | 1018.2 |
| 20260506231005 | 20 | 255 | 12.9 | 30.6 | 0.00 | 0.00 | 0.00 | 67 | 1018.1 |
| 20260506230504 | 20 | 272 | 12.9 | 30.6 | 0.00 | 0.00 | 0.00 | 67 | 1018.1 |
| 20260506225506 | 21 | 248 | 11.3 | 29.0 | 0.00 | 0.00 | 0.00 | 66 | 1018.3 |
| 20260506225007 | 21 | 310 | 11.3 | 25.7 | 0.00 | 0.00 | 0.00 | 67 | 1018.3 |
| 20260506224005 | 21 | 296 | 14.5 | 24.1 | 0.00 | 0.00 | 0.00 | 66 | 1018.4 |
| 20260506223505 | 21 | 223 | 12.9 | 22.5 | 0.00 | 0.00 | 0.00 | 66 | 1018.5 |
| 20260506223006 | 21 | 221 | 8.0 | 22.5 | 0.00 | 0.00 | 0.00 | 68 | 1018.6 |
| 20260506222505 | 21 | 261 | 11.3 | 22.5 | 0.00 | 0.00 | 0.00 | 66 | 1018.6 |
| 20260506222006 | 21 | 269 | 11.3 | 22.5 | 0.00 | 0.00 | 0.00 | 66 | 1018.5 |
| 20260506221505 | 21 | 228 | 11.3 | 19.3 | 0.00 | 0.00 | 0.00 | 66 | 1018.7 |
| 20260506221006 | 21 | 235 | 9.7 | 17.7 | 0.00 | 0.00 | 0.00 | 66 | 1018.7 |
| 20260506220006 | 22 | 275 | 8.0 | 19.3 | 0.00 | 0.00 | 0.00 | 66 | 1019.0 |
| 20260506215505 | 22 | 269 | 6.4 | 19.3 | 0.00 | 0.00 | 0.00 | 66 | 1019.1 |
| 20260506214505 | 22 | 281 | 8.0 | 19.3 | 0.00 | 0.00 | 0.00 | 65 | 1019.1 |
| 20260506214005 | 22 | 238 | 9.7 | 19.3 | 0.00 | 0.00 | 0.00 | 65 | 1019.0 |
| 20260506213006 | 22 | 264 | 6.4 | 14.5 | 0.00 | 0.00 | 0.00 | 65 | 1019.2 |
| 20260506212505 | 22 | 277 | 6.4 | 14.5 | 0.00 | 0.00 | 0.00 | 66 | 1019.1 |
| 20260506212006 | 21 | 265 | 6.4 | 17.7 | 0.00 | 0.00 | 0.00 | 67 | 1019.2 |
| 20260506211505 | 21 | 252 | 6.4 | 17.7 | 0.00 | 0.00 | 0.00 | 65 | 1019.2 |
| 20260506211007 | 21 | 225 | 6.4 | 17.7 | 0.00 | 0.00 | 0.00 | 67 | 1019.2 |
| 20260506210504 | 21 | 313 | 9.7 | 17.7 | 0.00 | 0.00 | 0.00 | 66 | 1019.2 |
| 20260506210007 | 21 | 284 | 6.4 | 17.7 | 0.00 | 0.00 | 0.00 | 66 | 1019.2 |
| 20260506205504 | 22 | 284 | 4.8 | 14.5 | 0.00 | 0.00 | 0.00 | 65 | 1019.2 |
| 20260506204505 | 22 | 273 | 3.2 | 6.4 | 0.00 | 0.00 | 0.00 | 61 | 1019.4 |
| 20260506204005 | 22 | 267 | 1.6 | 6.4 | 0.00 | 0.00 | 0.00 | 60 | 1019.4 |
| 20260506203505 | 22 | 240 | 3.2 | 6.4 | 0.00 | 0.00 | 0.00 | 59 | 1019.5 |
| 20260506202005 | 22 | 198 | 1.6 | 4.8 | 0.00 | 0.00 | 0.00 | 61 | 1019.7 |
| 20260506201006 | 22 | 29 | 1.6 | 3.2 | 0.00 | 0.00 | 0.00 | 60 | 1019.8 |
| 20260506200504 | 22 | 274 | 1.6 | 4.8 | 0.00 | 0.00 | 0.00 | 60 | 1019.8 |
| 20260506200007 | 22 | 35 | 1.6 | 4.8 | 0.00 | 0.00 | 0.00 | 60 | 1019.7 |
| 20260506195505 | 22 | 118 | 1.6 | 11.3 | 0.00 | 0.00 | 0.00 | 61 | 1019.8 |
| 20260506194005 | 21 | 90 | 4.8 | 9.7 | 0.00 | 0.00 | 0.00 | 64 | 1020.0 |
| 20260506193505 | 21 | 83 | 3.2 | 6.4 | 0.00 | 0.00 | 0.00 | 63 | 1020.1 |
| 20260506193005 | 21 | 246 | 1.6 | 6.4 | 0.00 | 0.00 | 0.00 | 62 | 1020.1 |
| 20260506192504 | 21 | 40 | 1.6 | 4.8 | 0.00 | 0.00 | 0.00 | 63 | 1020.2 |
| 20260506192005 | 21 | 342 | 0.0 | 4.8 | 0.00 | 0.00 | 0.00 | 63 | 1020.2 |
| 20260506191506 | 21 | 355 | 1.6 | 4.8 | 0.00 | 0.00 | 0.00 | 64 | 1020.3 |
| 20260506190504 | 21 | 313 | 1.6 | 6.4 | 0.00 | 0.00 | 0.00 | 63 | 1020.3 |
| 20260506190007 | 21 | 30 | 1.6 | 6.4 | 0.00 | 0.00 | 0.00 | 62 | 1020.4 |
| 20260506185005 | 21 | 90 | 1.6 | 6.4 | 0.00 | 0.00 | 0.00 | 63 | 1020.4 |
| 20260506184505 | 21 | 111 | 1.6 | 6.4 | 0.00 | 0.00 | 0.00 | 64 | 1020.4 |
| 20260506184007 | 21 | 346 | 3.2 | 11.3 | 0.00 | 0.00 | 0.00 | 63 | 1020.3 |
| 20260506183505 | 21 | 73 | 3.2 | 11.3 | 0.00 | 0.00 | 0.00 | 65 | 1020.5 |
| 20260506183006 | 20 | 131 | 1.6 | 11.3 | 0.00 | 0.00 | 0.00 | 65 | 1020.5 |
| 20260506182506 | 20 | 117 | 4.8 | 11.3 | 0.00 | 0.00 | 0.00 | 65 | 1020.6 |
| 20260506182005 | 20 | 193 | 1.6 | 6.4 | 0.00 | 0.00 | 0.00 | 66 | 1020.5 |
| 20260506181505 | 20 | 261 | 3.2 | 6.4 | 0.00 | 0.00 | 0.00 | 65 | 1020.5 |
| 20260506181006 | 20 | 346 | 1.6 | 4.8 | 0.00 | 0.00 | 0.00 | 66 | 1020.4 |
| 20260506180504 | 20 | 281 | 1.6 | 6.4 | 0.00 | 0.00 | 0.00 | 65 | 1020.4 |
| 20260506180008 | 20 | 231 | 1.6 | 6.4 | 0.00 | 0.00 | 0.00 | 67 | 1020.4 |
| 20260506175505 | 20 | 293 | 0.0 | 4.8 | 0.00 | 0.00 | 0.00 | 67 | 1020.4 |
| 20260506174504 | 19 | 188 | 3.2 | 9.7 | 0.00 | 0.00 | 0.00 | 67 | 1020.5 |
| 20260506174005 | 19 | 302 | 1.6 | 6.4 | 0.00 | 0.00 | 0.00 | 68 | 1020.5 |
| 20260506173505 | 18 | 279 | 1.6 | 8.0 | 0.00 | 0.00 | 0.00 | 70 | 1020.5 |
| 20260506173005 | 18 | 64 | 3.2 | 8.0 | 0.00 | 0.00 | 0.00 | 67 | 1020.5 |
| 20260506172505 | 18 | 297 | 3.2 | 6.4 | 0.00 | 0.00 | 0.00 | 67 | 1020.4 |
| 20260506172006 | 18 | 322 | 1.6 | 4.8 | 0.00 | 0.00 | 0.00 | 69 | 1020.3 |
| 20260506171505 | 18 | 28 | 1.6 | 6.4 | 0.00 | 0.00 | 0.00 | 69 | 1020.4 |
| 20260506171007 | 18 | 289 | 3.2 | 11.3 | 0.00 | 0.00 | 0.00 | 69 | 1020.4 |
| 20260506170504 | 18 | 244 | 3.2 | 11.3 | 0.00 | 0.00 | 0.00 | 69 | 1020.7 |
| 20260506170005 | 18 | 239 | 1.6 | 6.4 | 0.00 | 0.00 | 0.00 | 70 | 1020.7 |
| 20260506165505 | 18 | 244 | 3.2 | 6.4 | 0.00 | 0.00 | 0.00 | 68 | 1020.6 |
| 20260506165005 | 18 | 273 | 1.6 | 4.8 | 0.00 | 0.00 | 0.00 | 69 | 1020.7 |
| 20260506164006 | 18 | 188 | 1.6 | 3.2 | 0.00 | 0.00 | 0.00 | 69 | 1020.8 |
| 20260506163006 | 17 | 27 | 1.6 | 3.2 | 0.00 | 0.00 | 0.00 | 70 | 1020.6 |
| 20260506162504 | 17 | 302 | 1.6 | 4.8 | 0.00 | 0.00 | 0.00 | 70 | 1020.7 |
| 20260506162006 | 17 | 348 | 1.6 | 4.8 | 0.00 | 0.00 | 0.00 | 72 | 1020.7 |
| 20260506161504 | 17 | 306 | 0.0 | 4.8 | 0.00 | 0.00 | 0.00 | 73 | 1020.7 |
| 20260506161005 | 16 | 306 | 1.6 | 6.4 | 0.00 | 0.00 | 0.00 | 73 | 1020.7 |
| 20260506160504 | 16 | 279 | 3.2 | 6.4 | 0.00 | 0.00 | 0.00 | 73 | 1020.7 |
| 20260506160007 | 16 | 294 | 0.0 | 4.8 | 0.00 | 0.00 | 0.00 | 74 | 1020.8 |
| 20260506155504 | 16 | 306 | 1.6 | 6.4 | 0.00 | 0.00 | 0.00 | 74 | 1020.9 |
| 20260506155006 | 16 | 305 | 1.6 | 6.4 | 0.00 | 0.00 | 0.00 | 75 | 1020.9 |
| 20260506154505 | 15 | 286 | 0.0 | 4.8 | 0.00 | 0.00 | 0.00 | 76 | 1020.9 |
| 20260506153505 | 15 | 286 | 1.6 | 8.0 | 0.00 | 0.00 | 0.00 | 77 | 1020.9 |
| 20260506153007 | 15 | 287 | 1.6 | 8.0 | 0.00 | 0.00 | 0.00 | 78 | 1020.9 |
| 20260506152505 | 15 | 274 | 1.6 | 6.4 | 0.00 | 0.00 | 0.00 | 78 | 1020.7 |
| 20260506151506 | 14 | 279 | 3.2 | 6.4 | 0.00 | 0.00 | 0.00 | 80 | 1020.8 |
| 20260506150505 | 14 | 293 | 3.2 | 8.0 | 0.00 | 0.00 | 0.00 | 81 | 1020.7 |
| 20260506150007 | 14 | 288 | 3.2 | 11.3 | 0.00 | 0.00 | 0.00 | 82 | 1020.8 |
| 20260506145504 | 13 | 261 | 3.2 | 11.3 | 0.00 | 0.00 | 0.00 | 82 | 1020.8 |
| 20260506145006 | 13 | 239 | 1.6 | 6.4 | 0.00 | 0.00 | 0.00 | 83 | 1020.7 |
| 20260506144504 | 13 | 222 | 3.2 | 6.4 | 0.00 | 0.00 | 0.00 | 84 | 1020.6 |
| 20260506143504 | 13 | 279 | 3.2 | 8.0 | 0.00 | 0.00 | 0.00 | 84 | 1020.6 |
| 20260506143006 | 13 | 263 | 4.8 | 9.7 | 0.00 | 0.00 | 0.00 | 84 | 1020.5 |
| 20260506142505 | 13 | 250 | 3.2 | 9.7 | 0.00 | 0.00 | 0.00 | 84 | 1020.6 |
| 20260506142005 | 13 | 281 | 3.2 | 9.7 | 0.00 | 0.00 | 0.00 | 85 | 1020.5 |
| 20260506141505 | 13 | 334 | 1.6 | 4.8 | 0.00 | 0.00 | 0.00 | 85 | 1020.4 |
| 20260506140504 | 13 | 263 | 1.6 | 9.7 | 0.00 | 0.00 | 0.00 | 84 | 1020.3 |
| 20260506135505 | 12 | 322 | 3.2 | 9.7 | 0.00 | 0.00 | 0.00 | 84 | 1020.3 |
| 20260506135006 | 12 | 261 | 3.2 | 12.9 | 0.00 | 0.00 | 0.00 | 84 | 1020.3 |
| 20260506134504 | 12 | 232 | 4.8 | 14.5 | 0.00 | 0.00 | 0.00 | 84 | 1020.1 |
| 20260506134005 | 12 | 219 | 3.2 | 14.5 | 0.00 | 0.00 | 0.00 | 84 | 1020.2 |
| 20260506133504 | 12 | 272 | 4.8 | 12.9 | 0.00 | 0.00 | 0.00 | 85 | 1020.1 |
| 20260506133005 | 12 | 231 | 1.6 | 11.3 | 0.00 | 0.00 | 0.00 | 85 | 1020.1 |
| 20260506132505 | 12 | 288 | 3.2 | 9.7 | 0.00 | 0.00 | 0.00 | 85 | 1020.0 |
| 20260506132006 | 12 | 217 | 4.8 | 9.7 | 0.00 | 0.00 | 0.00 | 85 | 1020.1 |
| 20260506131505 | 12 | 260 | 3.2 | 6.4 | 0.00 | 0.00 | 0.00 | 85 | 1020.0 |
| 20260506131006 | 12 | 293 | 1.6 | 11.3 | 0.00 | 0.00 | 0.00 | 85 | 1020.0 |
| 20260506130505 | 12 | 301 | 6.4 | 11.3 | 0.00 | 0.00 | 0.00 | 85 | 1020.0 |
| 20260506125505 | 12 | 213 | 1.6 | 6.4 | 0.00 | 0.00 | 0.00 | 85 | 1020.0 |
| 20260506125006 | 12 | 257 | 3.2 | 8.0 | 0.00 | 0.00 | 0.00 | 85 | 1020.1 |
| 20260506124505 | 12 | 275 | 1.6 | 11.3 | 0.00 | 0.00 | 0.00 | 85 | 1020.0 |
| 20260506124006 | 12 | 257 | 3.2 | 11.3 | 0.00 | 0.00 | 0.00 | 85 | 1020.0 |
| 20260506123505 | 12 | 293 | 3.2 | 9.7 | 0.00 | 0.00 | 0.00 | 85 | 1019.9 |
| 20260506123006 | 12 | 321 | 3.2 | 6.4 | 0.00 | 0.00 | 0.00 | 85 | 1020.0 |
| 20260506121005 | 12 | 252 | 3.2 | 8.0 | 0.00 | 0.00 | 0.00 | 85 | 1019.8 |
| 20260506120505 | 12 | 270 | 3.2 | 8.0 | 0.00 | 0.00 | 0.00 | 85 | 1019.8 |
| 20260506120005 | 12 | 326 | 1.6 | 8.0 | 0.00 | 0.00 | 0.00 | 85 | 1019.9 |
| 20260506115505 | 12 | 315 | 1.6 | 8.0 | 0.00 | 0.00 | 0.00 | 85 | 1019.9 |
| 20260506115006 | 12 | 257 | 1.6 | 8.0 | 0.00 | 0.00 | 0.00 | 85 | 1019.8 |
| 20260506114005 | 12 | 251 | 3.2 | 8.0 | 0.00 | 0.00 | 0.00 | 85 | 1019.6 |
| 20260506113500 | 12 | 287 | 3.2 | 8.0 | 0.00 | 0.00 | 0.00 | 85 | 1019.6 |
| 20260506113005 | 12 | 241 | 4.8 | 11.3 | 0.00 | 0.00 | 0.00 | 85 | 1019.4 |
| 20260506112500 | 12 | 223 | 3.2 | 14.5 | 0.00 | 0.00 | 0.00 | 85 | 1019.5 |
| 20260506112006 | 12 | 267 | 4.8 | 14.5 | 0.00 | 0.00 | 0.00 | 85 | 1019.5 |
| 20260506111005 | 12 | 265 | 6.4 | 14.5 | 0.00 | 0.00 | 0.00 | 84 | 1019.4 |
| 20260506110005 | 12 | 216 | 4.8 | 12.9 | 0.00 | 0.00 | 0.00 | 85 | 1019.2 |
| 20260506105503 | 12 | 254 | 3.2 | 12.9 | 0.00 | 0.00 | 0.00 | 85 | 1019.3 |
| 20260506105005 | 12 | 275 | 3.2 | 11.3 | 0.00 | 0.00 | 0.00 | 85 | 1019.2 |
| 20260506104500 | 12 | 260 | 3.2 | 11.3 | 0.00 | 0.00 | 0.00 | 85 | 1019.1 |
| 20260506104005 | 12 | 243 | 4.8 | 14.5 | 0.00 | 0.00 | 0.00 | 85 | 1019.1 |
| 20260506103500 | 12 | 232 | 3.2 | 12.9 | 0.00 | 0.00 | 0.00 | 84 | 1019.2 |
| 20260506102505 | 12 | 275 | 4.8 | 14.5 | 0.00 | 0.00 | 0.00 | 84 | 1019.1 |
| 20260506102004 | 12 | 242 | 3.2 | 11.3 | 0.00 | 0.00 | 0.00 | 84 | 1019.0 |
| 20260506101005 | 12 | 274 | 4.8 | 12.9 | 0.00 | 0.00 | 0.00 | 84 | 1019.0 |
| 20260506100500 | 12 | 259 | 3.2 | 17.7 | 0.00 | 0.00 | 0.00 | 84 | 1019.0 |
| 20260506100008 | 12 | 240 | 6.4 | 17.7 | 0.00 | 0.00 | 0.00 | 84 | 1019.0 |
| 20260506095505 | 12 | 284 | 4.8 | 9.7 | 0.00 | 0.00 | 0.00 | 84 | 1019.1 |
| 20260506094505 | 12 | 244 | 3.2 | 14.5 | 0.00 | 0.00 | 0.00 | 84 | 1019.1 |
| 20260506093504 | 12 | 227 | 3.2 | 12.9 | 0.00 | 0.00 | 0.00 | 85 | 1019.1 |
| 20260506093006 | 12 | 290 | 3.2 | 9.7 | 0.00 | 0.00 | 0.00 | 85 | 1019.2 |
| 20260506092006 | 12 | 257 | 3.2 | 12.9 | 0.00 | 0.00 | 0.00 | 85 | 1019.1 |
| 20260506091504 | 12 | 260 | 3.2 | 11.3 | 0.00 | 0.00 | 0.00 | 85 | 1019.1 |
| 20260506091006 | 12 | 302 | 1.6 | 8.0 | 0.00 | 0.00 | 0.00 | 85 | 1019.1 |
| 20260506090005 | 12 | 284 | 1.6 | 6.4 | 0.00 | 0.00 | 0.00 | 84 | 1019.0 |
| 20260506085006 | 12 | 294 | 1.6 | 4.8 | 0.00 | 0.08 | 0.00 | 84 | 1019.0 |
| 20260506084505 | 12 | 267 | 0.0 | 11.3 | 0.00 | 0.08 | 0.00 | 84 | 1018.9 |
| 20260506084005 | 12 | 283 | 3.2 | 11.3 | 0.00 | 0.08 | 0.00 | 84 | 1019.0 |
| 20260506083504 | 12 | 332 | 3.2 | 11.3 | 0.00 | 0.08 | 0.00 | 84 | 1019.0 |
| 20260506083006 | 12 | 244 | 3.2 | 14.5 | 0.00 | 0.08 | 0.00 | 84 | 1018.9 |
| 20260506082006 | 12 | 268 | 3.2 | 12.9 | 0.00 | 0.08 | 0.00 | 84 | 1019.0 |
| 20260506081505 | 12 | 270 | 4.8 | 14.5 | 0.00 | 0.08 | 0.00 | 84 | 1019.0 |
| 20260506081006 | 12 | 259 | 4.8 | 16.1 | 0.00 | 0.08 | 0.00 | 84 | 1018.9 |
| 20260506080504 | 12 | 229 | 6.4 | 16.1 | 0.00 | 0.08 | 0.00 | 84 | 1018.9 |
| 20260506073005 | 12 | 307 | 4.8 | 12.9 | 0.00 | 0.18 | 0.00 | 83 | 1018.7 |
| 20260506072505 | 12 | 273 | 4.8 | 14.5 | 0.00 | 0.18 | 0.00 | 83 | 1018.6 |
| 20260506072005 | 12 | 278 | 4.8 | 19.3 | 0.00 | 0.18 | 0.00 | 83 | 1018.6 |
| 20260506071505 | 12 | 326 | 4.8 | 19.3 | 0.00 | 0.18 | 0.00 | 83 | 1018.6 |
| 20260506071005 | 13 | 285 | 4.8 | 20.9 | 0.00 | 0.18 | 0.00 | 83 | 1018.5 |
| 20260506062505 | 13 | 257 | 1.6 | 9.7 | 0.00 | 0.30 | 0.18 | 83 | 1018.3 |
| 20260506062006 | 13 | 263 | 3.2 | 14.5 | 0.00 | 0.30 | 0.18 | 83 | 1018.2 |
| 20260506061505 | 13 | 272 | 4.8 | 14.5 | 0.00 | 0.30 | 0.18 | 83 | 1018.2 |
| 20260506061006 | 13 | 303 | 3.2 | 14.5 | 0.00 | 0.30 | 0.18 | 83 | 1018.2 |
| 20260506051006 | 13 | 266 | 4.8 | 16.1 | 0.00 | 0.38 | 0.18 | 82 | 1017.7 |
| 20260506050505 | 13 | 250 | 8.0 | 19.3 | 0.00 | 0.38 | 0.18 | 82 | 1017.6 |
| 20260506045005 | 13 | 250 | 6.4 | 20.9 | 0.00 | 0.64 | 0.18 | 81 | 1017.4 |
| 20260506044505 | 13 | 251 | 4.8 | 19.3 | 0.00 | 0.64 | 0.18 | 81 | 1017.4 |
| 20260506043504 | 13 | 229 | 9.7 | 19.3 | 0.00 | 0.64 | 0.18 | 81 | 1017.2 |
| 20260506042505 | 13 | 252 | 6.4 | 14.5 | 0.00 | 0.64 | 0.18 | 80 | 1017.2 |
| 20260506042005 | 13 | 256 | 4.8 | 16.1 | 0.00 | 0.64 | 0.18 | 80 | 1017.1 |
| 20260506041505 | 13 | 245 | 6.4 | 16.1 | 0.00 | 0.64 | 0.18 | 80 | 1017.1 |
| 20260506041007 | 13 | 267 | 4.8 | 24.1 | 0.00 | 0.64 | 0.18 | 79 | 1017.1 |
| 20260506035008 | 13 | 287 | 3.2 | 16.1 | 0.00 | 0.74 | 0.18 | 78 | 1016.9 |
| 20260506034008 | 13 | 296 | 6.4 | 17.7 | 0.00 | 0.74 | 0.18 | 77 | 1016.8 |
| 20260506033505 | 13 | 261 | 4.8 | 14.5 | 0.00 | 0.74 | 0.18 | 77 | 1016.7 |
| 20260506033007 | 13 | 262 | 6.4 | 16.1 | 0.00 | 0.74 | 0.18 | 76 | 1016.7 |
| 20260506032505 | 13 | 265 | 4.8 | 17.7 | 0.00 | 0.74 | 0.18 | 76 | 1016.5 |
| 20260506032006 | 13 | 273 | 6.4 | 17.7 | 0.00 | 0.74 | 0.18 | 76 | 1016.3 |
| 20260506031505 | 13 | 283 | 6.4 | 17.7 | 0.00 | 0.74 | 0.18 | 76 | 1016.3 |
| 20260506031005 | 14 | 272 | 8.0 | 17.7 | 0.00 | 0.74 | 0.18 | 75 | 1016.3 |
| 20260506030505 | 14 | 247 | 6.4 | 16.1 | 0.00 | 0.74 | 0.18 | 75 | 1016.2 |
| 20260506030006 | 14 | 313 | 9.7 | 17.7 | 0.00 | 0.84 | 0.18 | 75 | 1016.1 |
| 20260506025504 | 14 | 265 | 9.7 | 19.3 | 0.00 | 0.84 | 0.18 | 75 | 1016.2 |
| 20260506025005 | 14 | 298 | 9.7 | 22.5 | 0.00 | 0.84 | 0.18 | 75 | 1016.1 |
| 20260506024505 | 14 | 291 | 9.7 | 22.5 | 0.00 | 0.84 | 0.18 | 75 | 1016.0 |
| 20260506024005 | 14 | 302 | 9.7 | 19.3 | 0.00 | 0.84 | 0.18 | 75 | 1016.0 |
| 20260506023505 | 14 | 232 | 9.7 | 17.7 | 0.00 | 0.84 | 0.18 | 75 | 1015.9 |
| 20260506023006 | 15 | 239 | 9.7 | 20.9 | 0.00 | 0.84 | 0.18 | 75 | 1016.1 |
| 20260506022505 | 15 | 305 | 9.7 | 20.9 | 0.00 | 0.84 | 0.18 | 75 | 1016.0 |
| 20260506022006 | 15 | 288 | 8.0 | 20.9 | 0.00 | 0.84 | 0.18 | 74 | 1015.9 |
| 20260506021505 | 15 | 263 | 8.0 | 20.9 | 0.00 | 0.84 | 0.18 | 74 | 1015.8 |
| 20260506021005 | 15 | 265 | 9.7 | 20.9 | 0.00 | 0.84 | 0.18 | 74 | 1015.7 |
| 20260506020505 | 15 | 282 | 9.7 | 22.5 | 0.00 | 0.84 | 0.18 | 74 | 1015.7 |
| 20260506020006 | 15 | 277 | 12.9 | 22.5 | 0.00 | 0.91 | 0.18 | 74 | 1015.7 |
| 20260506015505 | 15 | 252 | 12.9 | 19.3 | 0.00 | 0.91 | 0.18 | 74 | 1015.6 |
| 20260506015005 | 15 | 246 | 8.0 | 22.5 | 0.00 | 0.91 | 0.18 | 73 | 1015.7 |
| 20260506014505 | 15 | 296 | 11.3 | 24.1 | 0.00 | 0.91 | 0.18 | 73 | 1015.5 |
| 20260506014005 | 15 | 272 | 9.7 | 22.5 | 0.00 | 0.91 | 0.18 | 73 | 1015.4 |
| 20260506013504 | 16 | 291 | 14.5 | 22.5 | 0.00 | 0.91 | 0.18 | 73 | 1015.4 |
| 20260506013006 | 16 | 238 | 12.9 | 22.5 | 0.00 | 0.91 | 0.18 | 73 | 1015.3 |
| 20260506012505 | 16 | 205 | 8.0 | 22.5 | 0.00 | 0.91 | 0.18 | 73 | 1015.3 |
| 20260506012005 | 16 | 231 | 9.7 | 22.5 | 0.00 | 0.91 | 0.18 | 73 | 1015.3 |
| 20260506011505 | 16 | 248 | 9.7 | 22.5 | 0.00 | 0.91 | 0.18 | 73 | 1015.3 |
| 20260506011005 | 16 | 221 | 11.3 | 20.9 | 0.00 | 0.91 | 0.18 | 73 | 1015.3 |
| 20260506010505 | 16 | 223 | 9.7 | 19.3 | 0.00 | 0.91 | 0.18 | 72 | 1015.4 |
| 20260506010006 | 16 | 254 | 8.0 | 20.9 | 0.00 | 0.99 | 0.18 | 72 | 1015.3 |
| 20260506005504 | 16 | 232 | 8.0 | 19.3 | 0.00 | 0.99 | 0.18 | 73 | 1015.2 |
| 20260506005006 | 16 | 248 | 8.0 | 24.1 | 0.00 | 0.99 | 0.18 | 72 | 1015.3 |